[[{"header":{"parameterUnit":"m.s-1","parameterCategory":1,"la1":30.2991,"la2":30.254,"lo1":-89.0895,"lo2":-89.0444,"dy":0.0017,"dx":0.0017,"nx":28,"ny":28,"refTime":"2025-07-06T21:00:00:Z","depth":0,"parameterNumber":2,"parameterNumberName":"U-component_of_WINDS"},"data":[0,0,0,0,0,0,0,0,0,0,0,0,0,0,0,0,0,0,0,0,0,0,0,0,0,0,0,0,0,0,0,0,0,0,0,0,0,0,0,0,0,0,0,0,0,0,0,0,0,0,0,0,0,0,0,0,0,0,2.2705,2.2706,0,2.2791,2.2792,2.2793,2.2794,2.2793,2.2792,2.2791,2.2882,2.2886,2.2889,0,0,0,0,0,0,0,0,0,0,0,0,0,2.2544,2.2547,2.2705,2.2706,2.2707,2.2791,2.2792,2.2793,2.2795,2.2793,2.2792,2.2791,2.2881,2.2885,2.2889,0,0,0,0,0,0,0,0,0,0,0,0,0,2.2621,2.2548,2.2705,2.2718,2.272,2.2791,2.2792,2.2794,2.2795,2.2793,2.2792,2.279,2.288,2.2885,2.289,2.2954,0,0,2.2906,2.2908,0,0,0,0,0,0,0,0,2.2616,2.2626,2.2715,2.2717,2.2719,2.278,2.2769,2.2848,2.2795,2.2766,2.2791,2.2789,2.285,2.2857,2.2877,2.2959,2.2962,2.2906,2.2909,2.2911,2.2913,0,0,0,0,0,0,0,2.2611,2.2623,2.2739,2.2716,2.2719,2.272,2.2729,2.2784,2.2816,2.2769,2.2769,2.2779,2.2851,2.2872,2.2879,2.2964,2.2906,2.291,2.2914,2.2916,2.3104,2.3106,0,0,0,0,0,0,2.2603,2.2618,2.2736,2.2741,2.2663,2.2724,2.2734,2.2762,2.2816,2.2822,2.278,2.2779,2.2864,2.2873,2.2882,2.2962,2.2911,2.2916,2.2919,2.3102,2.3104,2.3106,0,0,0,0,0,0,2.2599,2.2613,2.2733,2.268,2.2695,2.2729,2.276,2.2765,2.2786,2.2824,2.283,2.2796,2.2863,2.2875,2.2937,2.2965,2.2918,2.2923,2.31,2.3103,2.3105,2.3122,0,0,0,0,0,0,2.2594,2.2612,2.2636,2.2681,2.2698,2.2784,2.2762,2.2768,2.2795,2.2794,2.2841,2.2847,2.2863,2.2929,2.2942,2.2972,2.2927,2.3097,2.3101,2.3104,2.3119,2.3125,2.313,0,0,0,0,0,2.2589,2.2638,2.2637,2.2651,2.2729,2.2786,2.2796,2.2813,2.2797,2.2822,2.2847,2.2846,2.296,2.2935,2.295,2.2982,2.3095,2.31,2.3104,2.3116,2.3124,2.313,0,0,0,0,0,0,2.2596,2.2644,2.2644,2.2708,2.2743,2.2786,2.2818,2.282,2.286,2.2858,2.2877,2.2888,2.2949,2.2971,2.2943,2.3047,2.3026,2.3033,2.303,2.3038,2.3043,2.3037,2.2932,0,0,0,0,0,2.2605,2.2647,2.2686,2.274,2.2757,2.2785,2.281,2.282,2.2857,2.2872,2.2901,2.2938,2.2982,2.3011,2.3054,2.3122,2.3133,2.3151,2.3157,2.3161,2.3168,2.3206,2.3215,2.312,2.312,2.312,0,0,2.2625,2.2656,2.2681,2.2742,2.277,2.2814,2.2797,2.2844,2.2877,2.2879,2.2939,2.2962,2.3004,2.3069,2.3099,2.309,2.3196,2.3167,2.317,2.3174,2.3211,2.322,2.3228,2.3123,2.3123,2.3122,0,0,2.2682,2.271,2.2757,2.2786,2.2828,2.2846,2.2858,2.2901,2.2916,2.2976,2.2979,2.3019,2.3094,2.3125,2.315,2.322,2.3221,2.3233,2.3263,2.33,2.3308,2.3314,2.334,2.3349,2.324,2.324,2.324,0,2.2701,2.2766,2.2782,2.2829,2.2856,2.2859,2.2908,2.2936,2.299,2.3009,2.2998,2.3093,2.3122,2.3195,2.3212,2.3232,2.3247,2.3228,2.3305,2.3312,2.3319,2.3343,2.3353,2.3241,2.3241,2.3241,2.3241,0,2.2788,2.2833,2.2867,2.2919,2.295,2.2997,2.3021,2.3051,2.3058,2.3077,2.3139,2.3174,2.3224,2.3242,2.3249,2.3316,2.3309,2.3301,2.328,2.3329,2.3352,2.3362,2.3243,2.3242,2.3242,2.3242,0,0,2.2853,2.2913,2.2925,2.2949,2.2996,2.3032,2.308,2.3129,2.3154,2.3192,2.3234,2.3298,2.3291,2.332,2.3331,2.3364,2.3418,2.3352,2.3353,2.3364,2.3494,2.35,2.3511,2.3418,2.342,2.3422,2.3491,0,2.2917,2.3001,2.3017,2.3092,2.3134,2.3138,2.3181,2.3215,2.3235,2.3274,2.3297,2.3342,2.3329,2.3347,2.3379,2.3404,2.3444,2.3399,2.3459,2.346,2.3448,2.3523,2.353,2.3593,2.35,2.3502,2.3503,0,2.3002,2.3041,2.312,2.3162,2.318,2.3218,2.3264,2.3301,2.3341,2.3353,2.3385,2.3393,2.3444,2.342,2.3492,2.3461,2.3486,2.3503,2.3505,2.3512,2.3485,2.3533,2.3614,2.3624,2.3518,2.3516,2.3515,0,2.3042,2.3115,2.3172,2.3192,2.3242,2.3269,2.3291,2.3329,2.3357,2.3397,2.3416,2.3462,2.3488,2.3524,2.3544,2.3525,2.3615,2.3593,2.3628,2.3627,2.3647,2.3646,2.3734,2.3662,2.3662,2.3662,2.3661,0,2.3112,2.316,2.319,2.3225,2.328,2.3298,2.3351,2.3373,2.3407,2.3447,2.3454,2.3491,2.3515,2.3557,2.3573,2.363,2.3642,2.3654,2.3658,2.3654,2.3652,2.3671,2.3667,2.3664,2.3664,2.3663,2.3663,0,2.3167,2.3189,2.3251,2.3293,2.3305,2.3344,2.338,2.3415,2.3435,2.3485,2.3498,2.353,2.3579,2.3602,2.3664,2.3674,2.374,2.3741,2.3727,2.3728,2.3762,2.3759,2.3866,2.3882,2.3798,2.3799,2.38,0,2.321,2.3247,2.3293,2.332,2.3343,2.3386,2.3415,2.3434,2.3464,2.3512,2.3541,2.359,2.3631,2.3709,2.3738,2.3785,2.3788,2.3822,2.3795,2.379,2.3789,2.3787,2.3791,2.3827,2.3828,2.3829,2.3829,0,2.3285,2.3294,2.3334,2.3379,2.3413,2.345,2.3486,2.3508,2.3533,2.3566,2.3616,2.3647,2.371,2.3759,2.3808,2.3832,2.3836,2.3837,2.3848,2.3845,2.3835,2.3841,2.3741,2.3835,2.3834,2.3834,2.3834,2.3833,2.3336,2.3369,2.3407,2.3452,2.3481,2.3515,2.3549,2.3573,2.3615,2.3666,2.3675,2.3729,2.3768,2.3834,2.386,2.3902,2.3895,2.391,2.3914,2.3918,2.392,2.3828,2.3911,2.3911,2.3911,2.3911,2.3911,0,2.3411,2.3436,2.3477,2.3527,2.3563,2.3562,2.3602,2.3632,2.3679,2.3714,2.3754,2.3812,2.386,2.3892,2.3941,2.3969,2.3972,2.3981,2.398,2.3985,2.3924,2.391,2.3978,2.3978,2.3978,2.3978,2.3978,2.3978,2.3455,2.3511,2.3525,2.3597,2.3621,2.3673,2.3696,2.3727,2.3756,2.3819,2.3859,2.3879,2.3914,2.3966,2.401,2.4018,2.4036,2.4046,2.4055,2.3997,2.399,2.3983,2.397,2.405,2.405,2.4113,2.4113,2.4114]},{"header":{"parameterUnit":"m.s-1","parameterCategory":1,"la1":30.2991,"la2":30.254,"lo1":-89.0895,"lo2":-89.0444,"dy":0.0017,"dx":0.0017,"nx":28,"ny":28,"refTime":"2025-07-06T21:00:00:Z","depth":0,"parameterNumber":3,"parameterNumberName":"V-component_of_WINDS"},"data":[0,0,0,0,0,0,0,0,0,0,0,0,0,0,0,0,0,0,0,0,0,0,0,0,0,0,0,0,0,0,0,0,0,0,0,0,0,0,0,0,0,0,0,0,0,0,0,0,0,0,0,0,0,0,0,0,0,0,1.3077,1.3077,0,1.3076,1.3076,1.3076,1.3055,1.3054,1.3053,1.3053,1.3052,1.3053,1.3053,0,0,0,0,0,0,0,0,0,0,0,0,0,1.3062,1.3063,1.3077,1.3077,1.3077,1.3076,1.3076,1.3076,1.3055,1.3054,1.3053,1.3053,1.3052,1.3053,1.3053,0,0,0,0,0,0,0,0,0,0,0,0,0,1.3066,1.3063,1.3077,1.3067,1.3066,1.3076,1.3076,1.3076,1.3055,1.3054,1.3053,1.3052,1.3052,1.3053,1.3053,1.3074,0,0,1.3056,1.3056,0,0,0,0,0,0,0,0,1.3066,1.3066,1.3068,1.3067,1.3066,1.3065,1.307,1.3075,1.3055,1.3059,1.3053,1.3052,1.3057,1.3057,1.3059,1.3074,1.3074,1.3056,1.3056,1.3056,1.3057,0,0,0,0,0,0,0,1.3065,1.3066,1.3077,1.3068,1.3067,1.3062,1.3062,1.3071,1.3063,1.3059,1.3057,1.3057,1.3056,1.3058,1.3059,1.3074,1.3056,1.3056,1.3057,1.3057,1.3107,1.3108,0,0,0,0,0,0,1.3067,1.3066,1.3077,1.3077,1.3064,1.3063,1.3062,1.3066,1.3062,1.3061,1.3058,1.3056,1.3057,1.3058,1.3059,1.3083,1.3056,1.3057,1.3058,1.3106,1.3107,1.3108,0,0,0,0,0,0,1.3066,1.3068,1.3077,1.3071,1.3072,1.3064,1.3068,1.3066,1.3068,1.3062,1.306,1.3061,1.3057,1.3058,1.3071,1.3083,1.3057,1.3058,1.3105,1.3106,1.3108,1.3132,0,0,0,0,0,0,1.3066,1.3068,1.3075,1.3071,1.3072,1.3089,1.3069,1.3067,1.3069,1.3067,1.3065,1.3063,1.3056,1.307,1.3071,1.3083,1.3059,1.3104,1.3106,1.3107,1.313,1.3134,1.3137,0,0,0,0,0,1.3065,1.3083,1.3076,1.3077,1.3082,1.3089,1.309,1.3081,1.307,1.3078,1.3074,1.3064,1.3081,1.3071,1.3073,1.3085,1.3103,1.3105,1.3107,1.3128,1.3133,1.3137,0,0,0,0,0,0,1.3088,1.3082,1.3074,1.3091,1.3091,1.3086,1.3095,1.3086,1.309,1.3088,1.3076,1.3076,1.3091,1.3089,1.3078,1.3105,1.309,1.3093,1.3106,1.311,1.3114,1.3114,1.3059,0,0,0,0,0,1.3095,1.3102,1.3096,1.3111,1.3111,1.3103,1.3106,1.3099,1.3099,1.3099,1.3096,1.3097,1.3102,1.3106,1.3111,1.313,1.3129,1.3139,1.3143,1.3146,1.3148,1.3158,1.3163,1.3115,1.3115,1.3114,0,0,1.311,1.3107,1.3112,1.3115,1.3115,1.3122,1.3104,1.3112,1.3118,1.3101,1.3113,1.311,1.311,1.3126,1.3133,1.3125,1.3161,1.3148,1.3151,1.3151,1.3161,1.3165,1.3169,1.3116,1.3116,1.3115,0,0,1.314,1.3138,1.3151,1.315,1.3149,1.3144,1.3147,1.3143,1.3141,1.3153,1.3141,1.3147,1.3157,1.3157,1.3159,1.3189,1.3179,1.3191,1.321,1.322,1.3224,1.3227,1.3238,1.3242,1.3193,1.3193,1.3193,0,1.3158,1.3168,1.3158,1.3167,1.3169,1.3154,1.3167,1.3167,1.3168,1.317,1.3161,1.3173,1.3172,1.3188,1.3195,1.3197,1.32,1.3191,1.3224,1.3227,1.323,1.3241,1.3245,1.3195,1.3194,1.3194,1.3194,0,1.3191,1.3198,1.3208,1.3209,1.3212,1.3223,1.3215,1.3219,1.3212,1.3208,1.322,1.3218,1.3222,1.3226,1.3219,1.3241,1.3236,1.3226,1.321,1.3236,1.3246,1.325,1.3197,1.3196,1.3196,1.3195,0,0,1.3235,1.323,1.3234,1.3235,1.3233,1.3238,1.3249,1.3252,1.3257,1.3258,1.3266,1.3275,1.3265,1.3267,1.326,1.3269,1.3294,1.3258,1.3257,1.3265,1.3318,1.3326,1.3331,1.3287,1.3288,1.3288,1.3318,0,1.3265,1.3282,1.3273,1.3291,1.3298,1.3284,1.3293,1.3293,1.3289,1.3295,1.329,1.3297,1.3284,1.3285,1.3293,1.3289,1.3304,1.3287,1.3295,1.3296,1.3296,1.3336,1.3344,1.3373,1.3322,1.3323,1.3323,0,1.3301,1.3303,1.3322,1.3319,1.3322,1.333,1.3333,1.3338,1.3338,1.3335,1.3337,1.3328,1.3338,1.3322,1.3337,1.3325,1.3328,1.3327,1.3328,1.3328,1.3311,1.3338,1.3381,1.3386,1.3329,1.3328,1.3328,0,1.3332,1.334,1.3352,1.3353,1.335,1.3356,1.3355,1.3353,1.3356,1.3359,1.3361,1.3365,1.3367,1.3371,1.3363,1.3352,1.3378,1.3362,1.3376,1.3377,1.3383,1.3383,1.3428,1.3384,1.3384,1.3384,1.3384,0,1.3365,1.3378,1.3366,1.3374,1.3388,1.3377,1.3391,1.3388,1.3387,1.3395,1.3383,1.339,1.3379,1.3385,1.338,1.3392,1.3393,1.3391,1.339,1.3393,1.3393,1.3395,1.3393,1.3385,1.3385,1.3385,1.3385,0,1.3402,1.3395,1.3408,1.3403,1.3403,1.3413,1.3409,1.3416,1.3412,1.3421,1.3423,1.3416,1.3422,1.3415,1.3421,1.3417,1.3435,1.343,1.3435,1.3434,1.3449,1.3448,1.3497,1.3503,1.3455,1.3456,1.3456,0,1.3424,1.3434,1.343,1.3434,1.3434,1.344,1.3443,1.3433,1.3437,1.3437,1.3445,1.345,1.3454,1.3465,1.3461,1.3466,1.3462,1.3478,1.3462,1.3465,1.3462,1.3462,1.3463,1.3482,1.3483,1.3483,1.3483,0,1.3465,1.3461,1.3465,1.3469,1.3472,1.3475,1.3476,1.348,1.347,1.3475,1.3481,1.3484,1.3491,1.3497,1.35,1.3499,1.349,1.3488,1.3492,1.3495,1.3498,1.3497,1.3445,1.3487,1.3487,1.3487,1.3487,1.3486,1.3495,1.3502,1.3501,1.3507,1.3507,1.3509,1.3515,1.3511,1.3517,1.3521,1.3515,1.3523,1.3523,1.3527,1.3527,1.3534,1.3526,1.3532,1.3533,1.3534,1.3537,1.3497,1.3534,1.3534,1.3534,1.3534,1.3534,0,1.3535,1.3533,1.3538,1.3541,1.3545,1.3536,1.3537,1.3541,1.3549,1.3549,1.3553,1.3561,1.3567,1.3563,1.3568,1.3574,1.357,1.3576,1.3575,1.3575,1.3543,1.3539,1.3579,1.3579,1.3579,1.3579,1.3579,1.3579,1.3556,1.3568,1.3564,1.3577,1.3575,1.3583,1.3585,1.3586,1.3586,1.3596,1.36,1.3598,1.3596,1.3601,1.3606,1.3605,1.3608,1.3615,1.3612,1.3582,1.3578,1.3573,1.357,1.3616,1.3616,1.3645,1.3645,1.3645]}]]